Back to catalog

STARLINK-5179

AliveCommunicationsVLEO
NORAD 54102·PAYLOAD·🇺🇸 United States

Launched Oct 20, 2022 from Cape Canaveral Space Force Station

Loading…

Next Passes (next 24 hours)

TLE

FreshSource: CelesTrak SupGP

Epoch: Sep 14, 2026, 22:16 UTC

1 54102C 22136BD  26257.92826389  .00496540  00000+0  18512-1 0  2577
2 54102  53.1611 203.1693 0001317  95.6231 275.0171 15.26651064    13

Track STARLINK-5179 in real time with AllMySat

Download on the App Store